Regional Weather Roundup
Issued by NWS

Home | Current Version | Previous Version | Graphics & Text | Print | Product List | Glossary On
Versions: 1 2 3 4 5 6 7 8 9 10 11 12 13 14 15 16 17 18 19 20 21 22 23 24 25 26 27 28 29 30 31 32 33 34 35 36 37 38 39 40 41 42 43 44 45 46 47 48 49 50
000
ASUS45 KBOU 041910
RWRCO

WEATHER ROUNDUP FOR COLORADO
NATIONAL WEATHER SERVICE DENVER/BOULDER CO
100 PM MDT SAT JUL 04 2015

NOTE: "FAIR" INDICATES FEW OR NO CLOUDS BELOW 12000 FEET WITH NO
SIGNIFICANT WEATHER AND/OR OBSTRUCTIONS TO VISIBILITY.

COZ001>005-013-030-031-042000-
...NORTHWEST COLORADO...

CITY           SKY/WX    TMP DP  RH WIND       PRES   REMARKS
CRAIG          MOSUNNY   88  46  23 VRB3      30.10F
HAYDEN         SUNNY     84  43  23 W8        30.13F
MEEKER         MOSUNNY   83  52  34 S8        30.14F
MOUNT WERNER   NOT AVBL
STEAMBOAT SPGS SUNNY     80  48  32 W5        30.17F
WALDEN         PTSUNNY   79  39  24 NW10G18   30.24F
$$

COZ006>008-011-042000-
...WEST CENTRAL VALLEYS...

CITY           SKY/WX    TMP DP  RH WIND       PRES   REMARKS
GRAND JUNCTION SUNNY     89  49  25 VRB6G21   30.01F
MONTROSE       PTSUNNY   85  49  28 VRB3      30.13F
EAGLE          MOSUNNY   82  46  28 SW17G23   30.16F
RIFLE          SUNNY     86  51  29 VRB5      30.08F
DELTA          PTSUNNY   89  48  23 CALM      30.08F
NUCLA          PTSUNNY   82  50  32 N8        30.16F
$$

COZ017>023-064>068-042000-
...SOUTHWEST COLORADO...

CITY           SKY/WX    TMP DP  RH WIND       PRES   REMARKS
DURANGO        MOSUNNY   79  48  33 S3        30.19F
CORTEZ         SUNNY     89  49  25 SW13      30.13F
PAGOSA SPRINGS MOSUNNY   77  42  27 S5        30.28F
TELLURIDE      PTSUNNY   73  43  34 E3        30.38F
WOLF CREEK PAS NOT AVBL
$$

COZ009-010-012-014-032>034-037-058>063-042000-
...CENTRAL COLORADO...

CITY           SKY/WX    TMP DP  RH WIND       PRES   REMARKS
ASPEN          MOSUNNY   79  47  32 NW6       30.25F
BUENA VISTA    MOSUNNY   76  39  26 NW3       30.25F THUNDER
COPPER MTN     MOSUNNY   64  30  27 W12G21    30.60F
BERTHOUD PASS  PTSUNNY   54  45  71 NW17      30.64S
COTTONWOOD PAS NOT AVBL
GUNNISON       MOSUNNY   70  50  49 W5        30.30F
KREMMLING      MOSUNNY   82  36  18 S6        30.21F
LEADVILLE      PTSUNNY   69  39  33 NE8       30.41S
MONARCH PASS   MOSUNNY   61  45  55 W12G25    30.71F
SALIDA         MOSUNNY   84  44  24 SW10      30.27F
SUNLIGHT       MOSUNNY   68  46  45 SW3       30.54F
WILKERSON PASS MOSUNNY   68  37  32 W5        30.55S
$$

COZ069>075-042000-
...SAN LUIS VALLEY/SANGRE DE CRISTO MOUNTAINS...

CITY           SKY/WX    TMP DP  RH WIND       PRES   REMARKS
ALAMOSA        SUNNY     78  48  34 MISG      30.25F
LA VETA PASS   SUNNY     66  50  55 MISG      30.45F
SAGUACHE       SUNNY     75  50  41 S7        30.28F
$$

COZ035-036-038>040-042000-
...NORTHERN COLORADO FRONT RANGE...

CITY           SKY/WX    TMP DP  RH WIND       PRES   REMARKS
DENVER INTL AP MOSUNNY   92  46  20 E9G21     30.00F
DMNS CITY PARK   N/A     90  43  19 NE7G15    29.99S
AURORA         MOSUNNY   89  47  23 NE5       30.03F
FRONT RANGE AP MOSUNNY   91  46  21 N12       30.02F
ERIE MUNI ARPT SUNNY     91  46  20 NE8       29.98S
BOULDER MUN AP SUNNY     88  55  33 SE5       29.99F
CENTENNIAL     MOSUNNY   89  42  19 N8        30.04F
BROOMFIELD     MOSUNNY   90  52  27 N5        30.02F
FORT COLLINS   MOSUNNY   90  59  35 SE3       29.95F
LONGMONT       MOSUNNY   92  54  27 CALM      29.99F
$$

COZ041-046-047-076>085-087-088-042000-
...PIKES PEAK/PALMER DIVIDE AND SOUTHERN FOOTHILLS...

CITY           SKY/WX    TMP DP  RH WIND       PRES   REMARKS
COLO. SPRINGS  PTSUNNY   77  57  50 SW7       30.11R THUNDER
A. F. ACADEMY  MOSUNNY   76  53  43 SW10      30.12R
ELLICOTT       MOSUNNY  N/A N/A N/A SW6       30.08F
FALCON         MOSUNNY   81  53  37 S10       30.15F
FORT CARSON    MOSUNNY   82  61  48 S7        30.07F
LIMON          SUNNY     84  56  38 S12G20    30.03F
MONUMENT HILL  NOT AVBL
TRINIDAD       SUNNY     89  49  25 MISG      30.06F
$$

COZ042>045-048>051-090-091-042000-
...NORTHEAST COLORADO...

CITY           SKY/WX    TMP DP  RH WIND       PRES   REMARKS
GREELEY ARPT   SUNNY     88  61  40 E5        29.95F
AKRON          SUNNY     90  52  27 S8        29.96F
BURLINGTON     SUNNY     90  55  30 S18       29.97F
WRAY           SUNNY     95  55  25 S13G22    29.93F
STERLING       SUNNY     91  59  33 W5          N/A
HOLYOKE        SUNNY     90  61  37 S15       29.93F
FORT MORGAN    SUNNY     88  52  29 S3        29.95F
$$

COZ086-089-092>099-042000-
...SOUTHEAST COLORADO...

CITY           SKY/WX    TMP DP  RH WIND       PRES   REMARKS
PUEBLO         SUNNY     91  55  29 SE8       29.97F
LA JUNTA       SUNNY     95  53  24 S13       29.94F
LAMAR          SUNNY     92  56  29 S7        29.92F
SPRINGFIELD      N/A     93  55  27 S15G28    29.98F
$$


USA.gov is the U.S. government's official web portal to all federal, state and local government web resources and services.